Location: EverStaR Observatory
(38.9036°N, 94.8303°W)
Time: 11:41:30
(UTC-05:00)

Envisat - Visible Passes

Search period start: 22 October 2019 00:00
Search period end: 01 November 2019 00:00
Orbit: 764 x 766 km, 98.1° (Epoch: 22 October)

Date Brightness Start Highest point End Pass type
(mag) Time Alt. Az. Time Alt. Az. Time Alt. Az.
22 Oct 6.7 06:47:58 10° E 06:48:13 10° E 06:48:29 10° E visible
22 Oct 3.3 19:35:53 10° S 19:40:56 72° WSW 19:46:02 10° NNW visible
23 Oct 3.2 18:59:21 10° SSE 19:04:14 50° ENE 19:09:09 10° N visible
23 Oct 5.8 20:40:11 10° SW 20:43:31 17° W 20:46:52 10° NW visible
24 Oct 6.1 07:10:25 10° NE 07:14:00 19° E 07:17:34 10° SE visible
24 Oct 4.4 20:01:46 10° SSW 20:06:30 39° W 20:11:15 10° NNW visible
25 Oct 3.0 19:24:35 10° SSE 19:29:40 89° ENE 19:34:46 10° NNW visible
26 Oct 3.4 18:48:21 10° SE 18:53:02 39° ENE 18:57:45 10° N visible
26 Oct 5.4 20:28:14 10° SW 20:32:09 22° W 20:36:06 10° NW visible
27 Oct 6.2 06:59:47 10° ENE 07:02:38 15° E 07:05:27 10° SE visible
27 Oct 3.9 19:50:16 10° S 19:55:12 51° W 20:00:09 10° NNW visible
28 Oct 2.9 19:13:22 10° SSE 19:18:25 71° ENE 19:23:29 10° N visible
28 Oct 6.2 20:55:56 10° WSW 20:57:55 12° W 20:59:54 10° WNW visible
29 Oct 5.0 20:16:29 10° SSW 20:20:49 28° W 20:25:10 10° NW visible
30 Oct 6.6 06:49:40 10° ENE 06:51:14 11° E 06:52:48 10° ESE visible
30 Oct 3.4 19:38:52 10° S 19:43:54 65° W 19:48:58 10° NNW visible
31 Oct 3.1 19:02:15 10° SSE 19:07:11 55° ENE 19:12:09 10° N visible
31 Oct 5.9 20:43:29 10° SW 20:46:31 16° W 20:49:35 10° NW visible
